Voltar ao catálogo

NOAA 16 DEB

AtivoSSO
NORAD 41204·DEBRIS·🇺🇸 United States

Lançado Sep 21, 2000 de Vandenberg Space Force Base

Loading…

Próximas Passagens (próximas 24 horas)

TLE

AtualizadoSource: Space-Track

Época: Sep 11, 2026, 15:00 UTC

1 41204U 00055DH  26254.62527399  .00001520  00000-0  71050-3 0  9997
2 41204  98.6992 317.0608 0018809 336.5907  23.4413 14.21707146554600

Acompanhe NOAA 16 DEB em tempo real com AllMySat

Download on the App Store